Location: Rio de Janeiro
(22.9068°S, 43.1729°W)
Time: 12:36:04
(UTC-03:00)

Envisat - Pass Details

Date: 05 December 2023
Orbit: 762 x 764 km, 98.3° (Epoch: 25 June)

Event Time Altitude Azimuth Distance (km) Brightness Sun altitude
Exits shadow 02:28:51 43° 69° (ENE) 1,072 3.8 -29.4°
Maximum altitude 02:29:52 50° 105° (ESE) 979 3.7 -29.2°
Drops below altitude 10° 02:34:48 10° 179° (S) 2,318 6.0 -28.4°
Sets 02:37:10 0° 184° (S) 3,250 6.8 -28.0°
